When you browse on this site, cookies collect data to enhance your experience and personalize the content and advertising you see.
Visit our Privacy Policy to learn more. By continuing to use the site, you agree to this use of cookies and data.
  • In Lithuania
  • List of Countries
  • For 7 days
  • Water Temperature
  • Weather Map
  • Weather Widgets
  • user-avatar
    Login

    Hourly Weather Matlock

    Today, 20 February, Thursday

    Time Temperature Precipitation Wind Pressure Humidity
    00:00 +6°C° 0 mm 7 mps 738 mmHg 89%
    01:00 +6°C° 0 mm 7 mps 738 mmHg 88%
    02:00 +6°C° 0 mm 8 mps 737 mmHg 88%
    03:00 +6°C° 0 mm 9 mps 737 mmHg 87%
    04:00 +6°C° 0 mm 9 mps 736 mmHg 86%
    05:00 +6°C° 0 mm 9 mps 735 mmHg 85%
    06:00 +6°C° 0 mm 8 mps 735 mmHg 85%
    07:00 +6°C° 0.1 mm 9 mps 734 mmHg 85%
    08:00 +6°C° 0.1 mm 10 mps 734 mmHg 85%
    09:00 +6°C° 0.1 mm 10 mps 733 mmHg 85%
    10:00 +5°C° 1.4 mm 10 mps 733 mmHg 87%
    11:00 +2°C° 1.4 mm 10 mps 734 mmHg 89%
    12:00 +1°C° 1.4 mm 10 mps 734 mmHg 91%
    13:00 +1°C° 0.4 mm 9 mps 735 mmHg 84%
    14:00 +1°C° 0.4 mm 9 mps 736 mmHg 77%
    15:00 +1°C° 0.4 mm 9 mps 738 mmHg 69%
    16:00 +1°C° 0 mm 8 mps 739 mmHg 70%
    17:00 0°C° 0 mm 8 mps 740 mmHg 70%
    18:00 -1°C° 0 mm 7 mps 741 mmHg 71%
    19:00 -1°C° 0 mm 7 mps 742 mmHg 73%
    20:00 -1°C° 0 mm 7 mps 743 mmHg 74%
    21:00 -1°C° 0 mm 7 mps 744 mmHg 76%
    22:00 -1°C° 0 mm 7 mps 745 mmHg 77%
    23:00 -1°C° 0 mm 6 mps 746 mmHg 78%

    Tomorrow, 21 February, Friday

    Time Temperature Precipitation Wind Pressure Humidity
    00:00 -1°C° 0 mm 6 mps 746 mmHg 79%
    01:00 -1°C° 0 mm 6 mps 746 mmHg 81%
    02:00 -1°C° 0 mm 6 mps 746 mmHg 82%
    03:00 -1°C° 0 mm 7 mps 746 mmHg 83%
    04:00 -1°C° 0 mm 7 mps 746 mmHg 83%
    05:00 0°C° 0 mm 7 mps 747 mmHg 83%
    06:00 0°C° 0 mm 7 mps 747 mmHg 83%
    13:00 +6°C° 0 mm 11 mps 744 mmHg 76%
    14:00 +5°C° 0 mm 12 mps 744 mmHg 76%
    15:00 +5°C° 0 mm 12 mps 743 mmHg 75%
    16:00 +6°C° 0 mm 11 mps 743 mmHg 76%
    17:00 +6°C° 0 mm 11 mps 743 mmHg 77%
    18:00 +4°C° 0 mm 11 mps 743 mmHg 77%
    19:00 +6°C° 0 mm 11 mps 742 mmHg 78%
    20:00 +5°C° 0 mm 12 mps 742 mmHg 78%
    21:00 +5°C° 0 mm 12 mps 741 mmHg 78%
    22:00 +7°C° 0.1 mm 12 mps 741 mmHg 80%
    23:00 +7°C° 0.1 mm 11 mps 740 mmHg 82%

    Day after tomorrow, 22 February, Saturday

    Time Temperature Precipitation Wind Pressure Humidity
    00:00 +8°C° 0.1 mm 11 mps 740 mmHg 84%
    01:00 +8°C° 0.1 mm 11 mps 739 mmHg 84%
    02:00 +8°C° 0.1 mm 11 mps 739 mmHg 85%
    03:00 +8°C° 0.1 mm 11 mps 738 mmHg 85%
    04:00 +8°C° 0.3 mm 12 mps 738 mmHg 81%
    05:00 +8°C° 0.3 mm 12 mps 738 mmHg 78%
    06:00 +8°C° 0.3 mm 12 mps 739 mmHg 74%
    07:00 +7°C° 0.1 mm 11 mps 739 mmHg 75%
    08:00 +6°C° 0.1 mm 11 mps 740 mmHg 75%
    09:00 +4°C° 0.1 mm 11 mps 740 mmHg 76%
    10:00 +3°C° 0.2 mm 11 mps 741 mmHg 75%
    11:00 +3°C° 0.2 mm 11 mps 742 mmHg 74%
    12:00 +3°C° 0.2 mm 11 mps 743 mmHg 74%
    13:00 +3°C° 0.2 mm 10 mps 743 mmHg 73%
    14:00 +3°C° 0.2 mm 10 mps 743 mmHg 73%
    15:00 +3°C° 0.2 mm 10 mps 743 mmHg 73%
    16:00 +2°C° 0.2 mm 9 mps 744 mmHg 77%
    17:00 +2°C° 0.2 mm 9 mps 744 mmHg 80%
    18:00 +1°C° 0.2 mm 8 mps 745 mmHg 84%
    19:00 +1°C° 0.1 mm 8 mps 745 mmHg 84%
    20:00 +1°C° 0.1 mm 8 mps 746 mmHg 85%
    21:00 +1°C° 0.1 mm 8 mps 746 mmHg 85%
    22:00 +1°C° 0 mm 8 mps 747 mmHg 84%
    23:00 +1°C° 0 mm 8 mps 747 mmHg 83%

    23 February, Sunday

    Time Temperature Precipitation Wind Pressure Humidity
    00:00 0°C° 0 mm 7 mps 747 mmHg 82%
    01:00 +2°C° 0.1 mm 7 mps 747 mmHg 83%
    02:00 +2°C° 0.1 mm 7 mps 747 mmHg 85%
    03:00 +2°C° 0.1 mm 6 mps 746 mmHg 87%
    04:00 +2°C° 0.6 mm 5 mps 746 mmHg 90%
    05:00 +3°C° 0.6 mm 3 mps 745 mmHg 92%
    06:00 +4°C° 0.6 mm 2 mps 744 mmHg 95%
    07:00 +4°C° 1.4 mm 2 mps 743 mmHg 96%
    08:00 +5°C° 1.4 mm 1 mps 743 mmHg 96%
    09:00 +5°C° 1.4 mm 1 mps 742 mmHg 97%
    10:00 +5°C° 0.1 mm 1 mps 743 mmHg 95%
    11:00 +6°C° 0.1 mm 1 mps 743 mmHg 93%
    12:00 +6°C° 0.1 mm 1 mps 744 mmHg 91%
    13:00 +5°C° 0 mm 2 mps 744 mmHg 90%
    14:00 +5°C° 0 mm 2 mps 744 mmHg 89%
    15:00 +6°C° 0 mm 2 mps 745 mmHg 88%
    16:00 +6°C° 0.1 mm 1 mps 745 mmHg 89%
    17:00 +6°C° 0.1 mm 1 mps 746 mmHg 90%
    18:00 +5°C° 0.1 mm 0 mps 746 mmHg 91%
    19:00 +6°C° 0.4 mm 1 mps 746 mmHg 92%
    20:00 +5°C° 0.4 mm 1 mps 746 mmHg 93%
    21:00 +5°C° 0.4 mm 1 mps 746 mmHg 95%
    22:00 +4°C° 0.5 mm 2 mps 746 mmHg 95%
    23:00 +4°C° 0.5 mm 3 mps 745 mmHg 95%

    24 February, Monday

    Time Temperature Precipitation Wind Pressure Humidity
    00:00 +4°C° 0.5 mm 4 mps 745 mmHg 96%
    01:00 +5°C° 0.2 mm 5 mps 744 mmHg 95%
    02:00 +5°C° 0.2 mm 6 mps 742 mmHg 94%
    03:00 +8°C° 0.2 mm 7 mps 741 mmHg 93%
    04:00 +7°C° 0 mm 8 mps 740 mmHg 90%
    05:00 +7°C° 0 mm 9 mps 739 mmHg 88%
    06:00 +7°C° 0 mm 10 mps 738 mmHg 85%
    07:00 +7°C° 0.1 mm 11 mps 737 mmHg 85%
    08:00 +7°C° 0.1 mm 11 mps 737 mmHg 86%
    09:00 +7°C° 0.1 mm 11 mps 736 mmHg 87%
    10:00 +8°C° 0.3 mm 11 mps 736 mmHg 85%
    11:00 +8°C° 0.3 mm 11 mps 736 mmHg 84%
    12:00 +8°C° 0.3 mm 11 mps 736 mmHg 83%
    13:00 +8°C° 0 mm 11 mps 736 mmHg 79%
    14:00 +7°C° 0.1 mm 10 mps 736 mmHg 75%
    15:00 +6°C° 0.1 mm 10 mps 736 mmHg 72%
    16:00 +5°C° 0 mm 9 mps 736 mmHg 72%
    17:00 +3°C° 0 mm 9 mps 737 mmHg 73%
    18:00 +2°C° 0 mm 8 mps 737 mmHg 73%
    19:00 +2°C° 0 mm 8 mps 738 mmHg 74%
    20:00 +1°C° 0 mm 8 mps 738 mmHg 74%
    21:00 +1°C° 0 mm 8 mps 739 mmHg 75%
    22:00 +1°C° 0 mm 8 mps 739 mmHg 75%
    23:00 0°C° 0 mm 8 mps 739 mmHg 75%

    25 February, Tuesday

    Time Temperature Precipitation Wind Pressure Humidity
    00:00 0°C° 0 mm 8 mps 739 mmHg 75%
    01:00 0°C° 0 mm 7 mps 739 mmHg 75%
    02:00 -1°C° 0 mm 7 mps 739 mmHg 76%
    03:00 -1°C° 0 mm 7 mps 739 mmHg 76%
    04:00 -1°C° 0 mm 7 mps 739 mmHg 78%
    05:00 -1°C° 0 mm 6 mps 738 mmHg 81%
    06:00 -1°C° 0 mm 6 mps 738 mmHg 83%
    07:00 -1°C° 0 mm 6 mps 738 mmHg 81%
    08:00 +1°C° 0 mm 6 mps 738 mmHg 79%
    09:00 0°C° 0 mm 7 mps 738 mmHg 77%
    10:00 +2°C° 0 mm 7 mps 737 mmHg 73%
    11:00 +3°C° 0 mm 7 mps 737 mmHg 69%
    12:00 +4°C° 0 mm 8 mps 736 mmHg 66%
    13:00 +4°C° 0.2 mm 7 mps 735 mmHg 69%
    14:00 +3°C° 0.2 mm 7 mps 735 mmHg 72%
    15:00 +3°C° 0.2 mm 7 mps 734 mmHg 75%
    16:00 +2°C° 0.1 mm 6 mps 733 mmHg 79%
    17:00 +2°C° 0.1 mm 5 mps 732 mmHg 82%
    18:00 +1°C° 0.1 mm 4 mps 732 mmHg 85%
    19:00 -1°C° 1.2 mm 6 mps 732 mmHg 87%
    20:00 -1°C° 1.2 mm 7 mps 732 mmHg 89%
    21:00 -3°C° 1.2 mm 9 mps 732 mmHg 90%
    22:00 -3°C° 0.1 mm 9 mps 732 mmHg 86%
    23:00 -4°C° 0.1 mm 9 mps 732 mmHg 82%
    Show more